Temperature
2 3 3 2 2 2 1 1 0 1 2 3 3 3 3 4 3 3 3 2 2 2 2 2 2 2 3 4 5 5 6 7 7 8 8 9 9 10 10 10 11 11 11 11
1 3 3 3 3 2 2 2 2 2 2 4 4 4 3 3 3 3 2 2 2 2 1 1 1 2 2 3 4 5 5 6 6 7 8 8 9 9 10 10 10 10 10 11
0 2 2 1 2 3 2 3 2 2 2 3 3 3 3 3 3 2 2 2 2 1 1 1 1 1 2 2 4 4 5 5 6 6 7 8 8 9 9 9 10 10 10 10
-0 0 -1 2 4 4 3 3 3 3 3 3 3 3 3 3 2 2 2 1 1 1 1 1 1 1 2 2 3 4 4 5 5 6 7 7 8 8 9 9 9 10 10 10
-1 -1 0 2 4 3 2 1 2 2 2 3 3 3 3 3 2 2 1 1 1 1 1 1 1 1 2 2 3 3 4 4 5 5 6 7 7 8 8 9 9 9 10 10
-1 -1 -0 2 4 3 2 -0 2 2 2 2 2 -0 1 2 2 1 1 1 0 1 1 1 1 1 1 2 2 3 3 4 5 5 6 6 7 7 8 8 8 9 9 9
-1 -1 0 3 3 3 -0 -0 3 3 2 2 1 1 2 1 1 1 0 0 0 0 0 0 0 1 1 1 2 2 3 4 4 5 5 6 6 7 7 8 8 8 8 9
-1 -1 -0 3 2 1 1 3 3 2 2 2 2 1 1 1 1 0 0 -0 -0 -0 0 0 0 0 1 1 1 2 3 3 4 4 5 6 6 7 7 7 8 8 8 8
-0 0 2 4 3 3 3 2 2 2 2 1 1 1 0 0 0 -0 -0 -0 -0 -0 -0 -0 -0 -0 0 1 1 2 2 3 3 4 5 5 6 6 7 7 7 7 8 8
-0 1 2 3 3 3 2 2 2 1 1 1 0 0 -0 -0 -1 -1 -1 -1 -1 -1 -1 -1 -0 -0 -0 0 1 1 2 2 3 3 4 5 5 6 6 6 7 7 7 7
-1 0 1 2 2 2 2 1 1 1 0 0 -0 -1 -1 -1 -1 -1 -1 -1 -1 -1 -1 -1 -1 -1 -0 -0 0 1 1 2 2 3 3 4 5 5 6 6 7 7 7 7
-0 1 0 1 2 2 1 1 0 -0 -0 -1 -1 -1 -1 -1 -1 -2 -2 -2 -2 -2 -2 -1 -1 -1 -1 -1 -0 0 1 1 2 2 3 3 4 5 5 6 6 7 7 7
2 2 1 1 1 1 0 -0 -1 -1 -1 -1 -1 -2 -2 -2 -2 -2 -2 -2 -2 -2 -2 -2 -2 -1 -1 -1 -1 -0 0 1 1 2 2 3 3 4 4 5 6 6 7 7
1 1 1 0 -0 -0 -1 -1 -1 -2 -2 -2 -2 -2 -3 -3 -3 -3 -3 -3 -3 -3 -3 -3 -2 -2 -2 -1 -1 -0 -0 0 1 1 2 2 3 3 4 4 5 6 6 6
0 0 -0 -0 -1 -1 -1 -2 -2 -2 -2 -3 -3 -3 -3 -3 -3 -3 -3 -3 -3 -3 -3 -3 -3 -2 -2 -2 -1 -1 -0 -0 0 1 1 2 2 3 3 4 4 5 5 5
-1 -1 -1 -1 -2 -2 -2 -3 -3 -3 -3 -4 -4 -4 -4 -4 -4 -4 -4 -4 -4 -4 -4 -4 -3 -3 -3 -2 -2 -2 -1 -0 -0 0 1 1 2 2 3 3 3 4 4 5
-1 -2 -2 -2 -3 -3 -3 -3 -4 -4 -4 -4 -5 -5 -5 -5 -5 -5 -5 -5 -5 -4 -4 -4 -4 -3 -3 -3 -3 -2 -2 -1 -1 -0 0 1 1 2 2 2 3 3 4 4
-2 -2 -3 -3 -3 -4 -4 -4 -4 -5 -5 -5 -5 -5 -5 -5 -5 -5 -5 -5 -5 -5 -4 -4 -4 -4 -3 -3 -3 -3 -2 -2 -1 -1 -0 0 1 1 2 2 2 3 3 3
-3 -3 -3 -4 -4 -4 -5 -5 -5 -5 -5 -6 -6 -6 -6 -6 -6 -6 -6 -5 -5 -5 -5 -5 -4 -4 -4 -3 -3 -3 -3 -2 -2 -1 -1 -0 0 1 1 2 2 2 2 3
-4 -4 -4 -5 -5 -5 -5 -5 -6 -6 -6 -6 -6 -6 -6 -6 -6 -6 -6 -6 -6 -6 -5 -5 -5 -4 -4 -4 -4 -3 -3 -3 -2 -2 -1 -1 -0 0 1 1 2 2 2 2
-5 -5 -5 -6 -6 -6 -6 -6 -6 -6 -7 -7 -7 -7 -7 -7 -7 -7 -7 -6 -6 -6 -6 -5 -5 -5 -5 -4 -4 -4 -3 -3 -3 -2 -2 -1 -1 -0 0 1 1 1 1 2
-6 -6 -6 -6 -6 -7 -7 -7 -7 -7 -7 -7 -7 -7 -7 -7 -7 -7 -7 -7 -6 -6 -6 -6 -5 -5 -5 -5 -5 -4 -4 -3 -3 -2 -2 -2 -1 -1 -1 -0 0 1 1 1
-6 -6 -6 -7 -7 -7 -7 -7 -7 -7 -7 -7 -7 -8 -8 -8 -8 -8 -7 -7 -7 -7 -7 -6 -6 -6 -5 -5 -5 -4 -4 -4 -3 -3 -2 -2 -2 -1 -1 -1 -0 0 0 1
-6 -7 -7 -7 -7 -7 -7 -7 -7 -8 -8 -8 -8 -8 -8 -8 -8 -8 -8 -7 -7 -7 -7 -6 -6 -6 -5 -5 -5 -5 -4 -4 -3 -3 -3 -2 -2 -2 -1 -1 -1 -1 -0 0
-7 -7 -7 -7 -7 -8 -8 -8 -8 -8 -8 -8 -8 -8 -8 -8 -8 -8 -8 -8 -8 -8 -7 -7 -6 -6 -6 -5 -5 -5 -5 -4 -4 -4 -3 -3 -2 -2 -2 -1 -1 -1 -1 -0
-7 -8 -8 -8 -8 -8 -8 -8 -9 -9 -9 -9 -9 -9 -9 -9 -9 -9 -8 -8 -8 -8 -7 -7 -6 -6 -6 -5 -5 -5 -5 -4 -4 -4 -4 -3 -3 -2 -2 -2 -2 -1 -1 -1
-8 -8 -8 -8 -8 -9 -9 -9 -9 -9 -9 -9 -9 -9 -9 -9 -9 -9 -9 -8 -8 -8 -8 -7 -7 -7 -6 -6 -6 -5 -5 -5 -5 -4 -4 -4 -3 -3 -3 -2 -2 -2 -1 -1
Wind_Speed
16 18 16 16 15 13 14 14 13 15 18 17 11 9 10 10 10 10 11 11 11 11 10 10 11 11 11 11 9 8 6 4 4 3 3 3 4 6 7 10 12 11 12 13
14 16 16 19 18 16 16 16 18 19 21 14 10 8 9 10 9 9 10 10 10 11 11 10 10 11 11 11 9 8 7 5 4 4 3 3 3 5 7 8 10 12 12 13
9 11 12 13 13 14 13 12 12 15 15 10 10 9 8 8 6 8 9 9 9 9 10 9 9 10 10 11 9 7 7 6 4 4 4 3 2 4 6 7 8 11 12 12
6 7 10 9 4 6 9 11 11 11 10 8 8 8 8 5 5 7 9 9 9 8 9 9 9 9 9 10 8 7 6 7 5 4 4 4 3 3 4 5 6 9 11 12
4 7 11 10 7 6 6 10 8 9 9 8 7 8 6 2 4 5 7 7 7 8 8 9 9 9 9 9 8 7 7 7 7 5 5 4 4 3 3 4 5 7 9 10
6 7 8 6 1 3 0 7 5 5 6 6 5 6 5 5 6 6 7 6 7 8 8 9 9 9 9 8 8 7 7 7 7 6 5 5 5 3 2 3 5 6 7 8
12 9 9 7 4 5 3 6 2 2 4 4 5 6 6 6 6 6 7 7 8 8 7 8 8 8 9 8 8 7 7 8 7 7 6 5 4 3 2 3 4 5 7 7
8 10 11 5 6 6 6 2 2 3 4 5 6 7 6 6 7 7 7 8 8 7 7 7 7 8 8 9 9 8 7 7 8 7 6 4 3 2 3 4 5 5 6 6
10 10 5 4 6 5 3 4 5 5 5 6 7 7 7 7 7 7 7 7 7 7 8 7 7 7 8 9 9 8 7 7 7 7 6 4 3 2 2 4 4 4 6 7
7 9 9 8 6 5 6 6 6 6 6 6 7 7 7 7 7 7 7 7 6 7 8 8 8 8 8 8 8 7 7 7 7 6 5 3 2 2 2 3 4 5 6 7
11 10 9 10 8 7 6 6 6 6 6 7 7 7 7 7 7 6 6 5 6 6 7 9 9 9 8 8 8 7 7 7 7 5 4 3 2 2 2 3 4 5 5 7
10 7 6 6 5 5 5 5 5 6 7 6 6 6 6 6 6 6 5 6 6 7 7 8 9 9 8 7 7 7 7 6 5 4 3 2 2 2 2 2 2 3 5 6
11 8 8 7 5 4 5 5 5 6 6 6 5 5 6 6 6 6 6 6 6 7 7 8 8 8 8 7 7 6 6 6 6 4 3 2 1 1 2 2 2 2 5 6
7 6 8 7 5 5 5 5 5 5 5 5 4 5 5 5 6 6 6 6 6 7 7 7 8 8 8 7 7 7 7 7 6 4 3 3 2 1 1 1 0 1 3 7
6 6 6 5 5 4 4 4 4 5 4 4 4 4 5 5 6 6 6 5 6 6 7 7 8 8 8 8 8 7 6 5 4 3 3 3 2 2 1 2 2 2 2 4
4 4 5 5 5 4 4 4 5 5 4 4 4 5 5 6 6 6 5 5 6 7 7 7 8 8 8 8 7 6 5 7 6 4 3 2 2 2 2 2 2 3 4 5
5 5 5 5 5 5 4 4 4 4 3 4 4 5 5 6 6 6 6 5 6 6 6 6 7 8 8 7 6 5 5 5 7 4 3 2 2 2 3 3 3 3 3 4
4 4 4 4 4 3 3 3 2 2 3 3 4 5 5 6 7 7 7 6 7 7 6 6 7 8 7 7 6 5 5 4 4 4 3 2 2 2 3 3 4 4 3 4
1 0 0 1 1 1 2 2 2 2 2 3 4 5 5 6 6 7 7 7 7 8 7 6 11 9 7 7 7 5 4 5 4 3 3 3 2 2 3 4 4 4 4 4
1 1 1 1 1 1 1 1 1 2 2 3 4 5 6 6 6 7 7 7 6 6 7 8 8 7 7 7 8 4 4 4 4 3 2 2 3 3 3 4 5 5 4 5
1 1 0 0 1 1 1 1 2 3 3 3 4 5 6 7 6 6 6 7 7 7 7 10 7 6 6 7 8 4 4 4 4 3 2 2 2 2 3 4 5 5 5 5
1 1 1 1 1 1 2 2 2 3 4 4 5 5 6 7 7 6 7 6 7 10 7 5 5 8 8 9 5 4 4 4 3 2 1 2 2 2 3 4 4 4 5 5
1 1 1 1 1 2 3 3 3 3 4 5 5 6 6 6 5 6 7 5 5 9 7 5 8 11 11 6 4 4 4 3 2 1 2 2 3 3 3 4 4 5 5 5
0 0 1 1 1 2 3 4 4 3 4 5 5 6 6 5 5 5 5 9 11 11 7 9 12 12 10 5 4 4 3 3 2 2 2 2 3 3 4 4 5 5 5 6
1 1 1 1 2 3 4 4 4 4 4 4 5 5 5 4 5 5 5 6 10 10 7 9 11 11 7 4 4 3 3 2 2 2 3 3 3 4 4 4 5 5 5 5
1 2 2 2 2 2 2 3 3 3 4 4 4 4 4 4 5 5 5 6 7 9 7 6 6 7 5 4 4 3 2 2 2 2 3 3 4 4 4 5 6 5 5 6
2 2 2 2 2 2 2 3 3 4 4 5 5 5 4 4 4 5 5 5 5 5 5 5 4 4 4 4 3 3 2 2 2 2 3 3 4 4 5 5 5 5 5 6
Wind_Direction
259 270 272 267 263 249 238 239 251 266 274 283 296 308 316 322 325 330 333 341 343 342 342 344 344 339 336 334 335 335 331 322 310 293 262 229 214 203 197 190 184 183 181 181
269 268 267 267 261 254 248 246 249 262 270 279 292 301 305 310 316 326 331 336 340 340 340 341 340 336 334 330 332 336 334 321 317 317 302 254 222 209 198 191 185 180 180 182
270 282 289 265 247 241 240 240 245 256 265 291 298 300 303 305 313 322 324 328 333 332 332 333 332 328 327 327 331 336 332 324 322 325 315 299 251 210 194 189 188 181 181 182
272 284 253 251 228 228 246 253 249 258 270 280 287 298 294 292 320 321 321 325 328 330 329 327 326 327 326 326 328 334 335 333 327 335 320 309 276 228 200 188 188 185 183 184
250 260 270 270 246 223 235 263 253 256 269 283 296 301 290 312 330 314 316 321 322 321 320 321 323 326 324 327 326 332 336 330 327 323 315 307 281 243 211 191 193 189 182 184
238 251 257 261 110 104 24 275 256 248 267 283 301 293 287 328 333 328 328 324 320 318 318 320 322 325 324 324 325 328 328 322 321 316 306 290 270 258 235 198 194 189 180 183
235 248 262 261 157 120 210 252 300 274 270 274 267 258 292 323 325 322 318 317 317 317 317 317 320 324 323 321 320 318 318 318 322 314 304 291 273 245 219 207 185 183 178 178
216 234 249 214 155 190 226 274 293 298 294 289 287 292 303 308 310 312 313 313 315 315 313 315 320 324 319 318 317 315 316 317 318 312 307 301 283 252 209 198 183 177 172 166
210 225 239 201 207 217 241 270 277 281 285 287 289 291 296 298 301 303 305 308 310 309 310 312 318 320 313 314 317 317 315 313 311 308 305 301 284 254 217 198 187 182 174 168
249 250 259 268 264 252 250 258 268 278 284 287 285 286 290 292 293 297 300 305 310 312 312 314 317 316 310 313 315 316 312 309 307 305 302 300 296 251 222 209 195 187 180 169
248 258 271 263 258 260 264 265 269 276 279 278 279 283 287 290 290 291 298 303 307 307 307 308 313 312 314 317 318 315 310 305 301 298 305 299 299 266 238 228 209 200 190 177
244 236 238 257 260 266 270 269 271 275 280 280 273 277 285 289 291 294 295 296 298 299 302 306 309 309 312 315 315 311 308 308 300 296 305 302 309 326 306 243 223 212 193 182
252 263 262 273 280 281 277 278 275 270 272 279 279 277 281 286 291 295 293 290 291 294 296 300 304 305 309 314 312 304 298 300 298 291 292 289 290 284 325 360 53 136 148 144
250 258 264 263 266 273 275 276 275 271 270 275 280 284 288 290 294 295 293 291 291 293 294 297 302 304 309 312 310 303 296 292 291 281 280 271 260 242 213 191 148 88 131 137
247 245 254 266 266 266 263 264 268 269 273 279 283 289 294 295 293 294 300 303 300 298 299 303 304 305 311 310 305 301 297 290 287 279 276 262 245 218 195 176 153 142 125 132
245 250 254 259 261 262 259 258 262 269 276 281 287 294 297 295 294 298 305 308 302 298 299 301 301 307 312 309 306 303 296 291 291 280 273 257 233 196 185 173 159 156 157 151
233 241 246 253 253 255 253 256 261 269 276 281 288 297 302 301 301 299 299 301 299 295 296 296 299 306 307 306 305 302 298 295 290 283 266 245 221 195 187 176 168 162 164 165
232 224 224 235 242 248 255 261 266 274 283 287 298 301 296 295 296 300 303 307 304 300 297 299 303 307 304 303 303 298 294 293 290 276 264 240 215 192 185 172 162 156 155 151
343 263 255 273 256 230 244 266 278 284 293 298 297 293 293 294 296 299 303 304 302 301 303 306 307 307 304 301 300 293 290 292 286 280 267 235 213 181 175 166 160 156 157 151
61 57 59 29 9 342 290 289 290 288 290 294 294 293 295 297 301 300 297 289 283 284 296 304 305 300 298 299 300 295 289 288 281 278 260 201 181 173 166 155 149 147 147 143
134 116 98 346 319 321 301 291 285 286 294 296 289 288 292 296 298 295 290 289 290 295 301 303 305 301 301 303 301 295 291 287 277 266 228 180 161 149 141 136 137 138 137 134
182 188 211 236 261 290 300 296 282 282 287 288 287 288 292 294 294 288 276 276 292 301 304 297 298 300 307 305 298 293 288 279 268 246 185 155 151 146 141 138 135 131 128 129
195 210 225 245 265 282 296 291 279 275 275 278 282 284 283 284 288 288 291 293 300 303 305 294 300 304 307 305 295 290 287 276 263 222 172 158 161 157 149 142 135 132 132 133
224 278 292 303 305 294 290 289 284 279 274 276 276 274 275 284 286 276 277 295 304 303 300 298 303 306 308 304 293 285 276 263 242 196 173 162 159 156 150 144 137 136 137 136
227 250 266 276 278 276 279 291 296 292 288 284 283 280 272 265 272 285 291 296 300 303 301 301 304 307 308 302 294 284 270 250 220 180 171 166 160 154 149 146 143 141 142 142
244 253 259 255 261 273 284 291 294 296 299 299 299 295 289 284 281 285 288 289 290 298 300 299 301 302 301 297 293 285 269 258 231 198 174 164 156 153 150 148 145 146 145 144
254 261 270 278 277 272 279 286 289 293 296 297 299 301 302 300 295 293 291 291 292 294 296 299 303 303 299 297 294 285 272 239 194 175 165 158 156 155 151 148 148 147 146 145
Height
1450 1444 1443 1441 1439 1438 1440 1438 1437 1424 1417 1409 1408 1407 1405 1402 1399 1396 1393 1390 1387 1383 1380 1376 1372 1368 1365 1362 1360 1358 1357 1357 1357 1359 1361 1364 1367 1371 1375 1380 1385 1391 1396 1401
1446 1438 1434 1430 1426 1426 1425 1424 1422 1418 1411 1405 1404 1403 1402 1400 1397 1394 1391 1389 1386 1383 1379 1375 1372 1368 1365 1362 1360 1357 1355 1356 1356 1357 1359 1361 1364 1367 1371 1375 1381 1386 1391 1396
1442 1433 1431 1425 1414 1414 1414 1411 1413 1412 1406 1402 1401 1400 1399 1397 1395 1393 1391 1388 1385 1382 1378 1375 1372 1369 1365 1361 1359 1357 1355 1354 1355 1355 1357 1359 1361 1364 1367 1372 1376 1381 1386 1391
1442 1438 1438 1415 1403 1404 1405 1404 1403 1401 1399 1399 1398 1397 1396 1395 1393 1391 1389 1386 1383 1380 1377 1374 1371 1367 1364 1360 1358 1356 1354 1354 1354 1354 1355 1357 1359 1362 1364 1368 1372 1376 1381 1387
1441 1437 1422 1407 1400 1400 1403 1402 1397 1397 1396 1396 1395 1394 1392 1391 1391 1389 1388 1385 1382 1379 1376 1372 1369 1365 1362 1360 1358 1355 1353 1353 1353 1353 1354 1355 1357 1359 1362 1365 1369 1373 1377 1382
1437 1434 1422 1404 1397 1396 1401 1403 1393 1392 1393 1393 1393 1395 1391 1389 1388 1386 1385 1382 1380 1377 1374 1370 1367 1364 1361 1358 1356 1354 1353 1352 1352 1352 1352 1354 1355 1357 1359 1363 1366 1370 1374 1378
1431 1427 1412 1398 1395 1397 1407 1402 1391 1390 1390 1390 1391 1391 1389 1386 1385 1383 1381 1379 1377 1374 1371 1368 1365 1362 1359 1357 1355 1354 1352 1351 1350 1350 1351 1352 1353 1355 1357 1360 1364 1367 1370 1374
1422 1421 1409 1391 1393 1396 1395 1390 1389 1388 1388 1388 1387 1386 1385 1383 1382 1380 1378 1376 1374 1371 1368 1366 1363 1360 1357 1355 1353 1352 1350 1348 1348 1348 1348 1349 1350 1352 1354 1357 1360 1363 1367 1371
1404 1399 1389 1386 1387 1386 1387 1387 1387 1386 1386 1385 1384 1382 1381 1380 1378 1377 1375 1373 1370 1368 1365 1363 1361 1358 1356 1354 1352 1349 1348 1346 1346 1345 1346 1346 1347 1349 1351 1354 1357 1360 1363 1367
1393 1386 1384 1383 1383 1383 1384 1383 1383 1383 1382 1382 1380 1379 1377 1376 1375 1373 1371 1369 1367 1364 1362 1360 1358 1356 1354 1351 1350 1347 1346 1344 1344 1343 1343 1344 1345 1346 1348 1351 1353 1356 1360 1363
1386 1382 1381 1379 1379 1379 1379 1378 1378 1378 1378 1377 1376 1374 1373 1372 1370 1369 1367 1365 1363 1361 1358 1356 1354 1352 1350 1348 1347 1344 1343 1342 1341 1341 1340 1341 1342 1343 1345 1347 1350 1353 1356 1360
1378 1375 1376 1374 1375 1375 1374 1374 1374 1373 1373 1372 1371 1370 1369 1367 1366 1364 1363 1361 1359 1357 1355 1352 1350 1348 1347 1345 1343 1341 1340 1339 1339 1338 1338 1338 1339 1340 1342 1345 1348 1351 1354 1358
1369 1369 1370 1369 1370 1370 1370 1370 1369 1369 1368 1367 1367 1366 1364 1363 1362 1360 1358 1357 1355 1353 1351 1349 1347 1345 1343 1341 1340 1338 1337 1336 1336 1335 1335 1335 1336 1337 1338 1341 1344 1348 1352 1355
1364 1364 1364 1364 1365 1365 1365 1365 1365 1364 1363 1363 1362 1361 1360 1359 1357 1355 1354 1352 1351 1349 1347 1345 1343 1341 1340 1338 1337 1335 1334 1333 1333 1333 1333 1333 1334 1335 1336 1338 1341 1345 1349 1352
1359 1359 1359 1360 1360 1360 1360 1360 1360 1359 1359 1358 1357 1356 1355 1354 1352 1351 1349 1348 1346 1344 1343 1341 1339 1338 1336 1335 1333 1332 1331 1330 1330 1330 1331 1331 1331 1333 1334 1336 1339 1342 1346 1350
1354 1354 1355 1355 1356 1356 1356 1356 1355 1355 1354 1354 1353 1352 1351 1350 1348 1347 1345 1344 1342 1340 1339 1337 1335 1334 1333 1331 1329 1328 1327 1327 1327 1327 1328 1328 1329 1330 1332 1334 1336 1339 1343 1347
1350 1350 1351 1351 1351 1351 1352 1352 1351 1351 1350 1350 1349 1348 1347 1345 1343 1342 1341 1340 1338 1336 1335 1334 1332 1331 1329 1327 1326 1325 1324 1323 1324 1324 1324 1325 1326 1327 1329 1331 1334 1337 1341 1345
1345 1346 1347 1347 1347 1347 1347 1347 1347 1347 1346 1346 1345 1344 1342 1341 1339 1338 1337 1335 1334 1332 1331 1330 1328 1327 1325 1324 1323 1321 1320 1320 1320 1320 1321 1322 1323 1324 1326 1329 1332 1335 1339 1343
1341 1342 1342 1343 1343 1344 1344 1344 1344 1343 1343 1342 1341 1340 1339 1337 1336 1334 1333 1331 1329 1327 1326 1325 1324 1323 1321 1320 1319 1318 1317 1317 1316 1317 1317 1318 1320 1321 1324 1326 1329 1333 1336 1340
1339 1339 1339 1340 1340 1341 1341 1340 1340 1340 1339 1339 1338 1336 1335 1333 1332 1331 1329 1327 1325 1324 1323 1321 1320 1319 1317 1316 1315 1314 1314 1314 1313 1313 1314 1315 1317 1318 1321 1323 1326 1330 1334 1338
1337 1337 1337 1338 1338 1338 1338 1338 1337 1337 1336 1335 1334 1333 1331 1330 1328 1327 1325 1322 1321 1321 1319 1318 1316 1315 1314 1313 1312 1311 1310 1310 1311 1311 1312 1313 1314 1316 1318 1321 1324 1328 1332 1336
1336 1336 1336 1336 1336 1335 1335 1335 1334 1333 1333 1332 1331 1329 1328 1326 1324 1323 1321 1320 1318 1317 1315 1314 1312 1312 1310 1309 1308 1307 1307 1307 1308 1309 1310 1311 1313 1315 1317 1320 1324 1327 1331 1335
1334 1334 1334 1334 1334 1333 1333 1332 1331 1330 1329 1328 1327 1325 1324 1322 1321 1319 1316 1316 1314 1313 1311 1310 1309 1308 1308 1307 1306 1305 1305 1305 1306 1307 1308 1310 1312 1315 1317 1320 1323 1327 1330 1334
1332 1332 1332 1332 1331 1331 1330 1329 1328 1327 1326 1324 1323 1322 1320 1318 1317 1315 1313 1312 1310 1309 1308 1307 1306 1305 1305 1304 1303 1303 1303 1304 1305 1306 1307 1309 1311 1314 1316 1319 1323 1326 1330 1334
1331 1330 1330 1329 1329 1328 1327 1326 1325 1323 1322 1320 1319 1318 1317 1315 1313 1311 1310 1308 1307 1305 1304 1303 1303 1302 1301 1301 1301 1301 1301 1302 1303 1304 1306 1308 1310 1313 1316 1319 1322 1326 1330 1334
1328 1328 1328 1327 1326 1325 1324 1323 1321 1320 1319 1317 1315 1314 1313 1311 1309 1308 1306 1305 1303 1302 1301 1300 1299 1298 1298 1298 1298 1298 1299 1300 1301 1303 1304 1307 1309 1312 1315 1318 1322 1325 1329 1333
1326 1326 1325 1324 1323 1323 1321 1320 1319 1317 1316 1314 1312 1310 1309 1307 1306 1304 1302 1301 1300 1299 1297 1297 1296 1296 1295 1296 1296 1296 1297 1298 1299 1301 1303 1305 1308 1311 1314 1317 1321 1324 1328 1332